AD0YN Weather Reports


Display with metric or nautical units.
time (UTC)temp
F
wind
direction
speed
MPH
gust
MPH
rain 1hr
in
rain 24hr
in
rain mn
in
humidity
%
barometer
mb
20260507223912 69 266 10.0 13.0 0.00 0.00 0.00 40 1010.7
20260507223408 69 231 8.0 9.0 0.00 0.00 0.00 42 1010.7
20260507222905 69 257 7.0 9.0 0.00 0.00 0.00 40 1011.0
20260507222401 68 247 11.0 13.0 0.00 0.00 0.00 40 1011.1
20260507221858 68 247 6.0 8.0 0.00 0.00 0.00 41 1011.0
20260507221355 67 270 8.0 13.0 0.00 0.00 0.00 43 1010.9
20260507220851 68 266 11.0 14.0 0.00 0.00 0.00 40 1010.7
20260507220349 68 289 10.0 11.0 0.00 0.00 0.00 40 1011.2
20260507215845 68 261 4.0 6.0 0.00 0.00 0.00 42 1010.9
20260507215342 67 248 7.0 9.0 0.00 0.00 0.00 43 1011.1
20260507214839 67 266 5.0 7.0 0.00 0.00 0.00 42 1011.1
20260507214338 68 253 9.0 10.0 0.00 0.00 0.00 40 1011.0
20260507213837 68 260 13.0 17.0 0.00 0.00 0.00 40 1011.1
20260507213335 68 254 9.0 10.0 0.00 0.00 0.00 40 1011.1
20260507212831 68 240 14.0 17.0 0.00 0.00 0.00 40 1010.9
20260507212327 68 234 9.0 11.0 0.00 0.00 0.00 41 1011.2
20260507211824 68 244 15.0 17.0 0.00 0.00 0.00 40 1011.1
20260507211321 68 253 9.0 13.0 0.00 0.00 0.00 43 1011.3
20260507210818 68 244 7.0 10.0 0.00 0.00 0.00 42 1011.3
20260507210315 68 277 8.0 11.0 0.00 0.00 0.00 42 1011.2
20260507205811 66 246 9.0 10.0 0.00 0.00 0.00 44 1011.2
20260507205308 68 257 11.0 11.0 0.00 0.00 0.00 41 1011.4
20260507204804 67 239 6.0 8.0 0.00 0.00 0.00 42 1011.3
20260507204302 67 219 10.0 11.0 0.00 0.00 0.00 42 1011.4
20260507203759 67 215 8.0 9.0 0.00 0.00 0.00 44 1011.5
20260507203257 66 179 7.0 9.0 0.00 0.00 0.00 47 1011.7
20260507202753 67 237 10.0 13.0 0.00 0.00 0.00 42 1011.8
20260507202249 67 245 8.0 13.0 0.00 0.00 0.00 42 1011.7
20260507201744 67 261 9.0 11.0 0.00 0.00 0.00 41 1011.7
20260507201241 65 226 10.0 11.0 0.00 0.00 0.00 44 1011.9
20260507200737 67 246 15.0 21.0 0.00 0.00 0.00 41 1011.9
20260507200233 67 190 6.0 10.0 0.00 0.00 0.00 44 1012.0
20260507195730 67 251 9.0 11.0 0.00 0.00 0.00 40 1011.9
20260507195227 66 234 9.0 11.0 0.00 0.00 0.00 41 1011.9
20260507194724 66 256 13.0 16.0 0.00 0.00 0.00 41 1012.3
20260507194220 65 203 14.0 17.0 0.00 0.00 0.00 43 1012.2
20260507193717 66 251 11.0 17.0 0.00 0.00 0.00 43 1012.3
20260507193214 65 233 3.0 3.0 0.00 0.00 0.00 44 1012.4
20260507192710 66 242 7.0 8.0 0.00 0.00 0.00 44 1012.5
20260507192207 65 246 7.0 9.0 0.00 0.00 0.00 41 1012.3
20260507191702 66 264 5.0 6.0 0.00 0.00 0.00 41 1012.6
20260507191200 66 246 9.0 9.0 0.00 0.00 0.00 44 1012.7
20260507190657 65 251 10.0 11.0 0.00 0.00 0.00 42 1012.7
20260507190155 66 248 9.0 11.0 0.00 0.00 0.00 42 1012.8
20260507185654 65 242 7.0 10.0 0.00 0.00 0.00 47 1012.7
20260507185150 65 240 14.0 16.0 0.00 0.00 0.00 42 1012.9
20260507184648 65 244 11.0 14.0 0.00 0.00 0.00 42 1012.9
20260507184146 66 245 11.0 14.0 0.00 0.00 0.00 42 1012.9
20260507183642 65 266 10.0 11.0 0.00 0.00 0.00 44 1012.9
20260507183139 65 259 6.0 8.0 0.00 0.00 0.00 44 1012.9
20260507182636 65 240 8.0 8.0 0.00 0.00 0.00 44 1013.0
20260507182131 66 247 13.0 15.0 0.00 0.00 0.00 40 1012.8
20260507181628 65 226 12.0 15.0 0.00 0.00 0.00 44 1013.0
20260507181124 64 236 8.0 10.0 0.00 0.00 0.00 44 1013.2
20260507180621 64 267 9.0 11.0 0.00 0.00 0.00 43 1013.3
20260507180118 64 238 8.0 9.0 0.00 0.00 0.00 43 1013.3
20260507175614 65 232 5.0 7.0 0.00 0.00 0.00 45 1013.3
20260507175111 66 248 12.0 16.0 0.00 0.00 0.00 42 1013.6
20260507174608 64 233 9.0 13.0 0.00 0.00 0.00 46 1013.6
20260507174106 64 262 9.0 15.0 0.00 0.00 0.00 44 1013.6
20260507173603 65 243 11.0 16.0 0.00 0.00 0.00 42 1013.8
20260507173100 65 269 8.0 10.0 0.00 0.00 0.00 45 1013.8
20260507172556 65 234 11.0 13.0 0.00 0.00 0.00 44 1013.9
20260507172053 64 231 9.0 10.0 0.00 0.00 0.00 45 1013.9
20260507171548 64 258 6.0 7.0 0.00 0.00 0.00 44 1014.0
20260507171046 63 232 9.0 11.0 0.00 0.00 0.00 47 1013.9
20260507170543 63 299 5.0 8.0 0.00 0.00 0.00 47 1014.1
20260507170040 64 274 7.0 9.0 0.00 0.00 0.00 43 1014.4
20260507165535 63 279 7.0 8.0 0.00 0.00 0.00 47 1014.2
20260507165032 64 233 14.0 17.0 0.00 0.00 0.00 43 1014.2
20260507164528 63 259 7.0 9.0 0.00 0.00 0.00 49 1014.3
20260507164025 63 285 13.0 15.0 0.00 0.00 0.00 44 1014.5
20260507163523 63 290 8.0 9.0 0.00 0.00 0.00 46 1014.5
20260507163021 62 236 11.0 14.0 0.00 0.00 0.00 47 1014.7
20260507162521 63 258 13.0 17.0 0.00 0.00 0.00 45 1014.7
20260507162018 63 247 17.0 21.0 0.00 0.00 0.00 45 1014.6
20260507161514 62 335 10.0 14.0 0.00 0.00 0.00 47 1014.7
20260507161011 62 304 9.0 10.0 0.00 0.00 0.00 47 1014.6
20260507160507 62 255 4.0 7.0 0.00 0.00 0.00 49 1015.0
20260507160003 61 262 9.0 10.0 0.00 0.00 0.00 48 1014.7
20260507155459 61 259 15.0 18.0 0.00 0.00 0.00 46 1014.9
20260507154956 62 221 11.0 14.0 0.00 0.00 0.00 46 1015.1
20260507154453 61 292 9.0 11.0 0.00 0.00 0.00 49 1015.0
20260507153950 61 307 8.0 10.0 0.00 0.00 0.00 50 1015.2
20260507153447 61 249 6.0 8.0 0.00 0.00 0.00 49 1015.1
20260507152943 60 243 6.0 9.0 0.00 0.00 0.00 51 1015.0
20260507152439 60 274 12.0 16.0 0.00 0.00 0.00 50 1015.1
20260507151935 60 241 12.0 14.0 0.00 0.00 0.00 50 1015.0
20260507151432 60 243 6.0 8.0 0.00 0.00 0.00 51 1015.0
20260507150929 60 238 6.0 8.0 0.00 0.00 0.00 53 1015.0
20260507150426 59 225 8.0 11.0 0.00 0.00 0.00 54 1015.0
20260507145922 60 229 6.0 9.0 0.00 0.00 0.00 52 1015.2
20260507145418 60 232 8.0 9.0 0.00 0.00 0.00 53 1015.2
20260507144915 59 264 8.0 10.0 0.00 0.00 0.00 52 1015.2
20260507144412 59 224 10.0 11.0 0.00 0.00 0.00 52 1015.1
20260507143909 59 251 12.0 15.0 0.00 0.00 0.00 53 1015.0
20260507143406 59 236 8.0 10.0 0.00 0.00 0.00 54 1015.3
20260507142903 58 261 6.0 8.0 0.00 0.00 0.00 56 1015.1
20260507142358 57 258 8.0 11.0 0.00 0.00 0.00 56 1015.2
20260507141856 57 247 8.0 11.0 0.00 0.00 0.00 56 1015.1
20260507141352 57 242 7.0 10.0 0.00 0.00 0.00 56 1015.2
20260507140849 57 237 5.0 7.0 0.00 0.00 0.00 58 1015.2
20260507140345 57 209 6.0 10.0 0.00 0.00 0.00 57 1015.4
20260507135843 56 259 9.0 10.0 0.00 0.00 0.00 58 1015.5
20260507135340 56 263 9.0 13.0 0.00 0.00 0.00 57 1015.1
20260507134837 55 261 6.0 7.0 0.00 0.00 0.00 59 1015.3
20260507134333 55 202 8.0 11.0 0.00 0.00 0.00 59 1015.4
20260507133829 54 248 4.0 4.0 0.00 0.00 0.00 60 1015.5
20260507133325 54 264 8.0 9.0 0.00 0.00 0.00 61 1015.2
20260507132824 53 241 5.0 7.0 0.00 0.00 0.00 62 1015.6
20260507132320 53 249 9.0 9.0 0.00 0.00 0.00 62 1015.7
20260507131817 52 224 4.0 4.0 0.00 0.00 0.00 63 1015.6
20260507131314 51 231 5.0 7.0 0.00 0.00 0.00 64 1015.9
20260507130810 51 257 3.0 6.0 0.00 0.00 0.00 65 1015.7
20260507130308 50 202 2.0 3.0 0.00 0.00 0.00 65 1015.9
20260507125807 50 236 6.0 7.0 0.00 0.00 0.00 65 1016.0
20260507125306 49 214 6.0 9.0 0.00 0.00 0.00 65 1015.9
20260507124801 49 247 6.0 7.0 0.00 0.00 0.00 66 1016.0
20260507124257 48 267 7.0 8.0 0.00 0.00 0.00 65 1015.9
20260507123756 48 230 6.0 9.0 0.00 0.00 0.00 66 1015.9
20260507123253 47 224 2.0 3.0 0.00 0.00 0.00 67 1016.0
20260507122748 47 228 3.0 3.0 0.00 0.00 0.00 67 1015.8
20260507122244 46 260 4.0 4.0 0.00 0.00 0.00 68 1015.7
20260507121740 46 230 5.0 7.0 0.00 0.00 0.00 68 1015.7
20260507121236 46 231 3.0 3.0 0.00 0.00 0.00 69 1015.8
20260507120732 45 237 4.0 6.0 0.00 0.00 0.00 69 1015.7
20260507120230 45 237 3.0 3.0 0.00 0.00 0.00 70 1015.5
20260507115726 44 235 4.0 6.0 0.00 0.00 0.00 71 1015.5
20260507115221 44 222 2.0 3.0 0.00 0.00 0.00 72 1015.6
20260507114717 44 205 2.0 3.0 0.00 0.00 0.00 72 1015.4
20260507114215 44 234 4.0 4.0 0.00 0.00 0.00 72 1015.5
20260507113712 44 225 5.0 6.0 0.00 0.00 0.00 72 1015.5
20260507113209 44 212 3.0 4.0 0.00 0.00 0.00 72 1015.4
20260507112706 43 216 4.0 6.0 0.00 0.00 0.00 72 1015.4
20260507112203 43 205 4.0 4.0 0.00 0.00 0.00 73 1015.4
20260507111701 43 201 3.0 4.0 0.00 0.00 0.00 72 1015.4
20260507111157 43 226 2.0 3.0 0.00 0.00 0.00 72 1015.4
20260507110653 43 215 2.0 3.0 0.00 0.00 0.00 72 1015.6
20260507110150 43 226 2.0 3.0 0.00 0.00 0.00 72 1015.5
20260507105647 43 209 4.0 4.0 0.00 0.00 0.00 72 1015.5
20260507105143 44 209 4.0 4.0 0.00 0.00 0.00 72 1015.6
20260507104640 44 221 3.0 3.0 0.00 0.00 0.00 71 1015.6
20260507104137 44 228 3.0 4.0 0.00 0.00 0.00 71 1015.6
20260507103633 44 178 3.0 3.0 0.00 0.00 0.00 71 1015.7
20260507103130 44 221 4.0 4.0 0.00 0.00 0.00 71 1015.6
20260507102626 44 209 6.0 8.0 0.00 0.00 0.00 70 1015.7
20260507102122 44 237 3.0 4.0 0.00 0.00 0.00 70 1015.7
20260507101618 44 241 3.0 4.0 0.00 0.00 0.00 70 1015.8
20260507101114 44 221 4.0 6.0 0.00 0.00 0.00 69 1015.7
20260507100612 45 239 4.0 4.0 0.00 0.00 0.00 68 1015.7
20260507100110 45 226 3.0 3.0 0.00 0.00 0.00 68 1015.7
20260507095608 45 232 3.0 3.0 0.00 0.00 0.00 68 1015.7
20260507095104 45 231 5.0 7.0 0.00 0.00 0.00 67 1015.6
20260507094600 44 201 4.0 4.0 0.00 0.00 0.00 67 1015.7
20260507094057 44 201 4.0 4.0 0.00 0.00 0.00 67 1015.6
20260507093555 44 209 2.0 4.0 0.00 0.00 0.00 67 1015.7
20260507093053 44 206 2.0 2.0 0.00 0.00 0.00 68 1015.9
20260507092549 44 221 4.0 4.0 0.00 0.00 0.00 68 1015.7
20260507092046 44 212 3.0 3.0 0.00 0.00 0.00 67 1016.0
20260507091543 44 240 4.0 4.0 0.00 0.00 0.00 68 1015.9
20260507091039 44 213 3.0 3.0 0.00 0.00 0.00 67 1016.1
20260507090535 45 215 2.0 2.0 0.00 0.00 0.00 67 1016.1
20260507090032 45 210 3.0 3.0 0.00 0.00 0.00 67 1016.1
20260507085529 44 257 3.0 3.0 0.00 0.00 0.00 68 1016.1
20260507085026 44 225 2.0 2.0 0.00 0.00 0.00 68 1016.2
20260507084522 45 238 3.0 3.0 0.00 0.00 0.00 67 1016.2
20260507084020 45 213 2.0 2.0 0.00 0.00 0.00 66 1016.1
20260507083515 45 214 2.0 3.0 0.00 0.00 0.00 66 1016.4
20260507083013 45 238 3.0 4.0 0.00 0.00 0.00 66 1016.2
20260507082509 45 231 3.0 3.0 0.00 0.00 0.00 66 1016.1
20260507082005 45 216 1.0 1.0 0.00 0.00 0.00 65 1016.2
20260507081501 46 229 2.0 2.0 0.00 0.00 0.00 65 1016.3
20260507080958 46 215 3.0 3.0 0.00 0.00 0.00 65 1016.1
20260507080454 46 226 2.0 3.0 0.00 0.00 0.00 63 1016.2
20260507075949 46 230 1.0 2.0 0.00 0.00 0.00 63 1016.1
20260507075446 46 232 1.0 1.0 0.00 0.00 0.00 61 1016.1
20260507074943 47 208 3.0 4.0 0.00 0.00 0.00 61 1016.3
20260507074440 47 232 2.0 2.0 0.00 0.00 0.00 60 1016.3
20260507073938 47 215 2.0 2.0 0.00 0.00 0.00 59 1016.3
20260507073434 47 226 2.0 2.0 0.00 0.00 0.00 59 1016.5
20260507072931 47 209 2.0 2.0 0.00 0.00 0.00 58 1016.2
20260507072428 48 219 2.0 3.0 0.00 0.00 0.00 57 1016.5
20260507071926 47 218 2.0 2.0 0.00 0.00 0.00 58 1016.3
20260507071422 47 231 2.0 3.0 0.00 0.00 0.00 58 1016.4
20260507070919 48 207 1.0 1.0 0.00 0.00 0.00 59 1016.7
20260507070417 48 234 2.0 2.0 0.00 0.00 0.00 58 1016.5
20260507065913 48 211 2.0 2.0 0.00 0.00 0.00 57 1016.6
20260507065410 48 214 2.0 3.0 0.00 0.00 0.00 56 1016.8
20260507064907 48 227 1.0 2.0 0.00 0.00 0.00 56 1016.8
20260507064405 48 240 2.0 3.0 0.00 0.00 0.00 56 1016.4
20260507063903 48 195 1.0 2.0 0.00 0.00 0.00 55 1016.7
20260507063400 49 226 2.0 3.0 0.00 0.00 0.00 54 1016.7
20260507062856 49 233 2.0 3.0 0.00 0.00 0.00 53 1016.6
20260507062353 49 223 1.0 1.0 0.00 0.00 0.00 54 1016.9
20260507061851 49 248 2.0 3.0 0.00 0.00 0.00 54 1016.7
20260507061349 49 228 1.0 1.0 0.00 0.00 0.00 53 1016.9
20260507060847 49 233 1.0 1.0 0.00 0.00 0.00 54 1016.8
20260507060343 48 225 0.0 1.0 0.00 0.00 0.00 54 1016.8
20260507055841 48 226 0.0 0.0 0.00 0.00 0.00 58 1017.0
20260507055341 48 229 0.0 0.0 0.00 0.00 0.00 55 1017.0
20260507054838 48 223 0.0 1.0 0.00 0.00 0.00 58 1017.0
20260507054334 48 210 0.0 0.0 0.00 0.00 0.00 56 1017.0
20260507053831 48 213 0.0 0.0 0.00 0.00 0.00 57 1017.0
20260507053329 48 212 0.0 0.0 0.00 0.00 0.00 59 1016.9
20260507052828 48 209 0.0 0.0 0.00 0.00 0.00 57 1016.8
20260507052324 48 201 0.0 0.0 0.00 0.00 0.00 55 1017.0
20260507051822 48 208 0.0 0.0 0.00 0.00 0.00 57 1016.9
20260507051320 48 209 0.0 0.0 0.00 0.00 0.00 53 1017.0
20260507050816 48 210 0.0 0.0 0.00 0.00 0.00 53 1016.9
20260507050312 48 211 0.0 0.0 0.00 0.00 0.00 53 1017.2
20260507045809 48 224 0.0 0.0 0.00 0.00 0.00 56 1017.1
20260507045306 48 224 0.0 0.0 0.00 0.00 0.00 55 1016.9
20260507044803 48 199 0.0 0.0 0.00 0.00 0.00 54 1017.1
20260507044259 48 199 0.0 0.0 0.00 0.00 0.00 54 1017.1
20260507043755 48 199 0.0 0.0 0.00 0.00 0.00 59 1017.3
20260507043252 48 199 0.0 0.0 0.00 0.00 0.00 58 1017.3
20260507042748 48 199 0.0 0.0 0.00 0.00 0.00 52 1017.2
20260507042244 48 199 0.0 0.0 0.00 0.00 0.00 53 1017.2
20260507041742 48 199 0.0 0.0 0.00 0.00 0.00 54 1017.0
20260507041238 48 200 1.0 1.0 0.00 0.00 0.00 53 1017.2
20260507040735 46 197 2.0 2.0 0.00 0.00 0.00 57 1017.3
20260507040231 44 309 0.0 0.0 0.00 0.00 0.00 68 1017.4
20260507035727 44 309 0.0 0.0 0.00 0.00 0.00 69 1017.3
20260507035223 44 309 0.0 0.0 0.00 0.00 0.00 70 1017.3
20260507034720 44 309 0.0 0.0 0.00 0.00 0.00 72 1017.1
20260507034217 44 309 0.0 0.0 0.00 0.00 0.00 72 1017.1
20260507033716 44 309 0.0 0.0 0.00 0.00 0.00 71 1017.2
20260507033213 44 309 0.0 0.0 0.00 0.00 0.00 70 1017.2
20260507032710 44 309 0.0 0.0 0.00 0.00 0.00 69 1017.3
20260507032206 44 309 0.0 0.0 0.00 0.00 0.00 70 1017.1
20260507031703 44 309 0.0 0.0 0.00 0.00 0.00 69 1017.2
20260507031159 44 309 0.0 0.0 0.00 0.00 0.00 68 1017.1
20260507030656 44 309 0.0 0.0 0.00 0.00 0.00 70 1017.2
20260507030154 44 309 0.0 0.0 0.00 0.00 0.00 66 1017.2
20260507025651 45 309 0.0 0.0 0.00 0.00 0.00 65 1017.4
20260507025148 45 309 0.0 0.0 0.00 0.00 0.00 68 1017.1
20260507024646 45 309 0.0 0.0 0.00 0.00 0.00 66 1017.1
20260507024143 46 309 0.0 0.0 0.00 0.00 0.00 65 1017.3
20260507023638 46 309 0.0 0.0 0.00 0.00 0.00 64 1017.1
20260507023136 46 309 0.0 0.0 0.00 0.00 0.00 60 1016.8
20260507022633 47 310 0.0 0.0 0.00 0.00 0.00 59 1016.9
20260507022128 47 310 0.0 0.0 0.00 0.00 0.00 60 1016.9
20260507021625 47 310 0.0 0.0 0.00 0.00 0.00 60 1016.9
20260507021120 48 310 0.0 0.0 0.00 0.00 0.00 57 1016.8
20260507020619 47 310 0.0 0.0 0.00 0.00 0.00 57 1017.0
20260507020115 47 310 0.0 0.0 0.00 0.00 0.00 56 1016.7
20260507015613 47 310 0.0 0.0 0.00 0.00 0.00 54 1016.9
20260507015110 48 310 0.0 0.0 0.00 0.00 0.00 55 1016.7
20260507014607 48 310 0.0 0.0 0.00 0.00 0.00 54 1016.5
20260507014103 49 310 0.0 0.0 0.00 0.00 0.00 55 1016.6
20260507013559 49 310 0.0 0.0 0.00 0.00 0.00 50 1016.5
20260507013057 50 310 0.0 0.0 0.00 0.00 0.00 47 1016.5
20260507012554 50 310 0.0 0.0 0.00 0.00 0.00 44 1016.4
20260507012049 51 310 0.0 0.0 0.00 0.00 0.00 41 1016.2
20260507011548 52 310 0.0 0.0 0.00 0.00 0.00 40 1016.4
20260507011044 53 310 0.0 0.0 0.00 0.00 0.00 38 1016.5
20260507010538 54 311 0.0 0.0 0.00 0.00 0.00 38 1016.3
20260507010035 55 316 1.0 1.0 0.00 0.00 0.00 37 1016.3
20260507005533 56 287 0.0 0.0 0.00 0.00 0.00 36 1016.6
20260507005028 57 288 0.0 1.0 0.00 0.00 0.00 35 1016.4
20260507004526 58 274 1.0 1.0 0.00 0.00 0.00 33 1016.5
20260507004023 58 244 0.0 0.0 0.00 0.00 0.00 33 1016.5
20260507003518 58 268 0.0 1.0 0.00 0.00 0.00 33 1016.5
20260507003014 59 253 1.0 1.0 0.00 0.00 0.00 33 1016.4
20260507002510 59 269 0.0 0.0 0.00 0.00 0.00 32 1016.4
20260507002007 59 276 1.0 2.0 0.00 0.00 0.00 31 1016.3
20260507001503 59 244 0.0 1.0 0.00 0.00 0.00 31 1016.4
20260507001001 59 343 2.0 3.0 0.00 0.00 0.00 30 1016.2
20260507000456 59 318 4.0 7.0 0.00 0.00 0.00 30 1016.3
20260506235952 60 348 4.0 6.0 0.00 0.00 0.00 30 1016.5
20260506235450 60 256 0.0 1.0 0.00 0.00 0.00 32 1016.2
20260506234945 60 317 3.0 4.0 0.00 0.00 0.00 30 1016.2
20260506234443 60 282 2.0 2.0 0.00 0.00 0.00 31 1016.3
20260506233941 59 208 0.0 1.0 0.00 0.00 0.00 33 1016.1
20260506233437 60 359 1.0 1.0 0.00 0.00 0.00 32 1016.5
20260506232933 60 244 1.0 2.0 0.00 0.00 0.00 31 1016.0
20260506232430 60 25 1.0 2.0 0.00 0.00 0.00 31 1016.2
20260506231926 60 352 4.0 6.0 0.00 0.00 0.00 33 1016.2
20260506231423 60 253 0.0 1.0 0.00 0.00 0.00 31 1016.3
20260506230920 60 34 3.0 3.0 0.00 0.00 0.00 31 1016.3
20260506230417 60 216 1.0 1.0 0.00 0.00 0.00 32 1016.4
20260506225913 60 312 2.0 3.0 0.00 0.00 0.00 30 1016.5
20260506225411 60 1 4.0 6.0 0.00 0.00 0.00 30 1016.3
20260506224908 60 287 5.0 7.0 0.00 0.00 0.00 29 1016.5
20260506224405 61 240 3.0 3.0 0.00 0.00 0.00 30 1016.6